Regional Weather Roundup
Issued by NWS

Home | Current Version | Previous Version | Text Only | Print | Product List | Glossary Off
Versions: 1 2 3 4 5 6 7 8 9 10 11 12 13 14 15 16 17 18 19 20 21 22 23 24 25 26 27 28 29 30 31 32 33 34 35 36 37 38 39 40 41 42 43 44 45 46 47 48 49 50

000
ASUS45 KPSR 181000
RWRAZ

PRELIMINARY ARIZONA REGIONAL HOURLY WEATHER ROUNDUP
NATIONAL WEATHER SERVICE PHOENIX AZ
300 AM MST THU SEP 18 2014

NOTE: FAIR INDICATES FEW OR NO CLOUDS BELOW 12,000 FEET WITH NO
SIGNIFICANT WEATHER AND/OR OBSTRUCTIONS TO VISIBILITY.

AZZ001>003-036-181100-
NORTHWEST ARIZONA

CITY           SKY/WX    TMP DP  RH WIND       PRES   REMARKS
KINGMAN        CLEAR     66  60  81 S3        29.92S
$$

AZZ004>008-015-016-018-181100-
NORTH CENTRAL ARIZONA

CITY           SKY/WX    TMP DP  RH WIND       PRES   REMARKS
GRAND CANYON   CLEAR     45  43  93 CALM      30.13F
PRESCOTT       CLEAR     59  54  83 CALM      30.03S
FLAGSTAFF      CLEAR     49  47  93 CALM      30.14F
PAGE           CLEAR     70  52  52 SW5       29.97S
$$

AZZ009>014-017-181100-
NORTHEAST ARIZONA

CITY           SKY/WX    TMP DP  RH WIND       PRES   REMARKS
WINSLOW        NOT AVBL
SAINT JOHNS    CLEAR     58  53  84 VRB5      30.05S
WINDOW ROCK    CLEAR     46  41  82 CALM      30.15F
$$

AZZ023-181100-
GREATER PHOENIX AREA

CITY           SKY/WX    TMP DP  RH WIND       PRES   REMARKS
PHOENIX        CLEAR     81  64  56 E6        29.74S
DEER VALLEY    CLEAR     78  63  59 NE5       29.76F
SCOTTSDALE     CLEAR     78  64  61 CALM      29.78F
MESA-GATEWAY   CLEAR    N/A N/A N/A NE6       29.78S
$$

AZZ027-028-181100-
SOUTHWEST MARICOPA COUNTY AND PINAL COUNTY

CITY           SKY/WX    TMP DP  RH WIND       PRES   REMARKS
CASA GRANDE    CLEAR     79  61  53 NE5       29.77S
$$

AZZ503-504-507>509-181100-
SOUTHEAST ARIZONA

CITY           SKY/WX    TMP DP  RH WIND       PRES   REMARKS
TUCSON         CLOUDY    72  67  84 SE3       29.84S
DAVIS-MONTHAN  DRIZZLE   72  68  88 NE6       29.83R
NOGALES        CLOUDY    66  65  96 W7        29.89S FOG
SAFFORD        LGT RAIN  65  63  93 SE9       29.90F
$$

AZZ020-021-025-026-031-181100-
SOUTHWEST ARIZONA

CITY           SKY/WX    TMP DP  RH WIND       PRES   REMARKS
YUMA           CLEAR     86  72  62 SE6       29.69F
$$

CAZ031-033-041-043-047-048-061-181100-
SOUTHERN CALIFORNIA

CITY           SKY/WX    TMP DP  RH WIND       PRES   REMARKS
DOWNTOWN L.A.  CLEAR     70  58  65 CALM      29.79S
L.A. AIRPORT   CLEAR     67  61  81 E6        29.79S
SAN DIEGO      CLEAR     73  67  81 CALM      29.82S
BURBANK        CLEAR     71  56  58 SE7       29.80S
ONTARIO        CLEAR     71  60  68 W5        29.81S
RIVERSIDE      CLEAR     72  60  66 CALM      29.81S
PALM SPRINGS   CLEAR     89  55  31 W5        29.71F
EL CENTRO NAS  CLEAR     88  62  41 S6        29.66S
IMPERIAL       CLEAR     88  65  46 SE7       29.66S
BLYTHE         CLEAR     84  68  58 CALM      29.70S
$$

NVZ020-UTZ003-181100-
SOUTHERN NEVADA-UTAH

CITY           SKY/WX    TMP DP  RH WIND       PRES   REMARKS
LAS VEGAS      NOT AVBL
SALT LAKE CITY PTCLDY    72  44  36 SE14      29.89S
$$

NMZ009-TXZ055-181100-
NEW MEXICO-WEST TEXAS

CITY           SKY/WX    TMP DP  RH WIND       PRES   REMARKS
ALBUQUERQUE    MOCLDY    63  54  72 NW3       30.08F
EL PASO        CLOUDY    67  62  84 N10       29.98F
$$


........................KEY........................
SKY/WX - SKY CONDITION/WEATHER
TMP    - TEMPERATURE IN FAHRENHEIT
DP     - DEW POINT IN FAHRENHEIT
RH     - RELATIVE HUMIDITY IN PERCENT
WIND   - DIRECTION AND SPEED IN MILES PER HOUR (MPH)
VRB    - VARIABLE WIND DIRECTION
PRES   - MEAN SEA LEVEL PRESSURE IN INCHES OF MERCURY
         F - FALLING PRESSURE   R - RISING PRESSURE
         S - STEADY PRESSURE
VSB    - VISIBILITY IN MILES
HX     - HEAT INDEX IN FAHRENHEIT
WCI    - WIND CHILL INDEX IN FAHRENHEIT
TC     - TEMPERATURE IN CELSIUS WHICH IS ALSO KNOWN AS
         TEMPERATURE IN CENTIGRADE
AFB    - AIR FORCE BASE
         LUKE AFB IS LUKE AIR FORCE BASE
         DAVIS-MONTHAN IS DAVIS-MONTHAN AIR FORCE BASE
NAS    - NAVAL AIR STATION
         EL CENTRO NAS IS EL CENTRO NAVAL AIR STATION
N/A    - NOT AVAILABLE


USA.gov is the U.S. government's official web portal to all federal, state and local government web resources and services.